Home   Weather   Aarhus   Past weeks

Flag for Denmark Past Weather in Aarhus, Denmark — Yesterday and Last 2 Weeks

Now
37 °F

Overcast.


Feels Like: 31 °F
Forecast: 40 / 44 °F
Wind: 9 mph from Southwest

Location: Tirstrup

Current Time: Jan 18, 2017 at 5:27:29 am

Latest Report: Jan 18, 2017 at 4:50 am


Visibility: N/A

Pressure: 30.54 "Hg

Humidity: 81%

Dew Point: 32 °F

Location of AarhusLocation

Past Weather in Aarhus — Graph

°F

Aarhus Temperature Yesterday

Maximum temperature yesterday: 37 °F (at 9:50 pm)
Minimum temperature yesterday: 18 °F (at 2:20 am)
Average temperature yesterday: 29 °F

High & Low Weather Summary for the Past Weeks

 TemperatureHumidityPressure
High46 °F (Jan 3, 2:20 pm)100% (Jan 3, 4:20 am)30.77 "Hg (Jan 3, 4:20 am)
Low7 °F (Jan 6, 7:50 am)59% (Jan 5, 12:20 pm)29.00 "Hg (Jan 11, 2:50 pm)
Average32 °F84%29.94 "Hg
* Reported Jan 3 4:20 am — Jan 18 4:20 am, Aarhus, Weather by CustomWeather, © 2017

Note: Actual official high and low records may vary slightly from our data, if they occured in-between our weather recording intervals... More about our weather records

Advertising

Aarhus Weather History for the Previous 24 Hours

Scroll right to see more
 ConditionsComfort  
Time TempWeatherWind HumidityBarometerVisibility
4:20 am
Wed, Jan 18
37 °FMostly cloudy.10 mph81%30.54 "HgN/A
3:50 am37 °FOvercast.10 mph81%30.54 "HgN/A
3:20 am37 °FOvercast.10 mph81%30.57 "HgN/A
2:50 am37 °FMostly cloudy.7 mph81%30.57 "HgN/A
2:20 am36 °FMostly cloudy.7 mph87%30.57 "HgN/A
1:50 am36 °FOvercast.8 mph81%30.57 "HgN/A
1:20 am37 °FOvercast.7 mph75%30.57 "HgN/A
12:50 am37 °FOvercast.7 mph75%30.57 "HgN/A
12:20 am37 °FMostly cloudy.7 mph75%30.57 "HgN/A
11:50 pm
Tue, Jan 17
37 °FOvercast.8 mph75%30.57 "HgN/A
11:20 pm37 °FOvercast.7 mph75%30.57 "HgN/A
10:50 pm37 °FOvercast.8 mph75%30.60 "HgN/A
10:20 pm37 °FOvercast.9 mph75%30.60 "HgN/A
9:50 pm37 °FOvercast.9 mph75%30.60 "HgN/A
9:20 pm36 °FOvercast.8 mph81%30.60 "HgN/A
8:50 pm36 °FPassing clouds.7 mph81%30.60 "HgN/A
8:20 pm36 °FPassing clouds.7 mph81%30.60 "HgN/A
7:50 pm36 °FOvercast.6 mph81%30.60 "HgN/A
7:20 pm36 °FOvercast.6 mph75%30.60 "HgN/A
6:50 pm36 °FPassing clouds.7 mph75%30.60 "HgN/A
6:20 pm36 °FOvercast.7 mph81%30.60 "HgN/A
5:50 pm36 °FPassing clouds.5 mph81%30.60 "HgN/A
5:20 pm36 °FPartly cloudy.5 mph75%30.60 "HgN/A
4:50 pm36 °FPassing clouds.5 mph75%30.60 "HgN/A
4:20 pm36 °FMostly cloudy.6 mph75%30.57 "HgN/A
3:50 pm36 °FMostly cloudy.5 mph75%30.57 "HgN/A
3:20 pm34 °FOvercast.6 mph81%30.57 "HgN/A
2:50 pm34 °FPartly sunny.6 mph81%30.57 "HgN/A
2:20 pm34 °FPartly sunny.6 mph81%30.57 "HgN/A
1:50 pm34 °FSnow flurries. Partly sunny.6 mph81%30.57 "HgN/A
1:20 pm34 °FBroken clouds.6 mph75%30.60 "HgN/A
12:50 pm34 °FBroken clouds.6 mph81%30.60 "HgN/A
12:20 pm34 °FPartly sunny.6 mph81%30.60 "HgN/A
11:50 am32 °FPartly sunny.5 mph87%30.60 "HgN/A
11:20 am32 °FPartly sunny.5 mph87%30.60 "HgN/A
10:50 am30 °FBroken clouds.3 mph93%30.60 "HgN/A
10:20 am30 °FPartly sunny.2 mph86%30.60 "HgN/A
9:50 am28 °FPartly sunny.2 mph86%30.57 "HgN/A
9:20 am27 °FOvercast.2 mph93%30.57 "HgN/A
8:50 am27 °FPartly sunny.2 mph93%30.57 "HgN/A
8:20 am25 °FPassing clouds.1 mph93%30.57 "HgN/A
7:50 am23 °FPassing clouds.1 mph93%30.57 "HgN/A
7:20 am21 °FPassing clouds.No wind93%30.57 "HgN/A
6:50 am21 °FPassing clouds.1 mph86%30.57 "HgN/A
6:20 am19 °FPassing clouds.No wind86%30.57 "HgN/A
5:50 am19 °FPassing clouds.No wind86%30.57 "HgN/A
5:20 am18 °FPassing clouds.No wind93%30.57 "HgN/A
Weather by CustomWeather, © 2017

See weather overviewHow to use our weather pages